Satellite: NOAA-11 Catalog number: 19531 Epoch time: 12131.31351074 Element set: 915 Inclination: 098.7321 deg RA of node: 217.2663 deg Eccentricity: 0.0011124 Arg of perigee: 336.7626 deg Mean anomaly: 023.3054 deg Mean motion: 14.14964669 rev/day Decay rate: -1.34e-06 rev/day^2 Epoch rev: 21915 Checksum: 271
Satellite: NOAA-12 Catalog number: 21263 Epoch time: 12131.56553925 Element set: 402 Inclination: 098.7314 deg RA of node: 153.4044 deg Eccentricity: 0.0013226 Arg of perigee: 313.8131 deg Mean anomaly: 046.1956 deg Mean motion: 14.25492915 rev/day Decay rate: 8.9e-07 rev/day^2 Epoch rev: 9119 Checksum: 279
Satellite: MET-3/5 Catalog number: 21655 Epoch time: 12130.78516677 Element set: 0001 Inclination: 082.5562 deg RA of node: 179.3158 deg Eccentricity: 0.0014415 Arg of perigee: 062.7412 deg Mean anomaly: 297.5177 deg Mean motion: 13.17033116 rev/day Decay rate: 3.90e-06 rev/day^2 Epoch rev: 99660 Checksum: 297
Satellite: MET-2/21 Catalog number: 22782 Epoch time: 12131.84350804 Element set: 413 Inclination: 082.5497 deg RA of node: 062.1415 deg Eccentricity: 0.0020948 Arg of perigee: 256.7661 deg Mean anomaly: 103.1175 deg Mean motion: 13.83682928 rev/day Decay rate: 1.10e-06 rev/day^2 Epoch rev: 94400 Checksum: 281
Satellite: OKEAN-4 Catalog number: 23317 Epoch time: 12130.92961413 Element set: 0903 Inclination: 082.5403 deg RA of node: 066.9672 deg Eccentricity: 0.0023076 Arg of perigee: 115.2390 deg Mean anomaly: 245.1220 deg Mean motion: 14.83735451 rev/day Decay rate: 9.21e-06 rev/day^2 Epoch rev: 94913 Checksum: 276
Satellite: NOAA-14 Catalog number: 23455 Epoch time: 12131.54111163 Element set: 883 Inclination: 098.8274 deg RA of node: 215.5114 deg Eccentricity: 0.0010336 Arg of perigee: 067.6608 deg Mean anomaly: 292.5660 deg Mean motion: 14.13895907 rev/day Decay rate: 9.6e-07 rev/day^2 Epoch rev: 89547 Checksum: 312
Satellite: NOAA-15 Catalog number: 25338 Epoch time: 12131.42334297 Element set: 256 Inclination: 098.6883 deg RA of node: 118.6927 deg Eccentricity: 0.0009974 Arg of perigee: 214.5132 deg Mean anomaly: 145.5418 deg Mean motion: 14.25065058 rev/day Decay rate: 2.67e-06 rev/day^2 Epoch rev: 72747 Checksum: 321
Satellite: RESURS Catalog number: 25394 Epoch time: 12130.97452542 Element set: 0097 Inclination: 098.3195 deg RA of node: 121.2284 deg Eccentricity: 0.0001981 Arg of perigee: 023.9259 deg Mean anomaly: 336.2007 deg Mean motion: 14.24286089 rev/day Decay rate: 1.9e-07 rev/day^2 Epoch rev: 71896 Checksum: 304
Satellite: FENGYUN1 Catalog number: 25730 Epoch time: 12130.95401341 Element set: 0602 Inclination: 098.8447 deg RA of node: 090.6060 deg Eccentricity: 0.0019888 Arg of perigee: 109.7883 deg Mean anomaly: 250.5433 deg Mean motion: 14.09475637 rev/day Decay rate: 1.422e-05 rev/day^2 Epoch rev: 66922 Checksum: 301
Satellite: OKEAN-0 Catalog number: 25860 Epoch time: 12131.92965371 Element set: 623 Inclination: 097.9325 deg RA of node: 095.3435 deg Eccentricity: 0.0001616 Arg of perigee: 047.1387 deg Mean anomaly: 312.9953 deg Mean motion: 14.74179020 rev/day Decay rate: 3.78e-06 rev/day^2 Epoch rev: 68908 Checksum: 316
Satellite: NOAA-16 Catalog number: 26536 Epoch time: 12131.43002104 Element set: 741 Inclination: 099.0968 deg RA of node: 172.9637 deg Eccentricity: 0.0010434 Arg of perigee: 185.8969 deg Mean anomaly: 174.2070 deg Mean motion: 14.12734531 rev/day Decay rate: 6.3e-07 rev/day^2 Epoch rev: 59970 Checksum: 299
Satellite: NOAA-17 Catalog number: 27453 Epoch time: 12131.30194845 Element set: 698 Inclination: 098.3381 deg RA of node: 160.2480 deg Eccentricity: 0.0010629 Arg of perigee: 268.2569 deg Mean anomaly: 091.7376 deg Mean motion: 14.24428077 rev/day Decay rate: 1.94e-06 rev/day^2 Epoch rev: 51336 Checksum: 317
Satellite: NOAA-18 Catalog number: 28654 Epoch time: 12131.28763295 Element set: 173 Inclination: 099.0429 deg RA of node: 089.0670 deg Eccentricity: 0.0013441 Arg of perigee: 261.4030 deg Mean anomaly: 098.5630 deg Mean motion: 14.11647311 rev/day Decay rate: 5.33e-06 rev/day^2 Epoch rev: 35921 Checksum: 288
Satellite: NOAA-19 Catalog number: 33591 Epoch time: 12131.28706019 Element set: 365 Inclination: 098.8631 deg RA of node: 071.5507 deg Eccentricity: 0.0014734 Arg of perigee: 125.6489 deg Mean anomaly: 234.6072 deg Mean motion: 14.11332112 rev/day Decay rate: -1.8e-07 rev/day^2 Epoch rev: 16766 Checksum: 290
/EX SB KEPS @ AMSAT $ORB12131.M Orbital Elements 12131.MISC
HR AMSAT ORBITAL ELEMENTS FOR MANNED AND MISCELLANEOUS SATELLITES FROM WA5QGD FORT WORTH,TX May 10, 2012 Send SUBSCRIBE KEPS/UNSUBSCRIBE KEPS to [email protected] only BID: ORB12131.M TO ALL RADIO AMATEURS BT
Satellite: HUBBLE Catalog number: 20580 Epoch time: 12131.06287096 Element set: 997 Inclination: 028.4721 deg RA of node: 033.0195 deg Eccentricity: 0.0002950 Arg of perigee: 012.5953 deg Mean anomaly: 347.4790 deg Mean motion: 15.02446579 rev/day Decay rate: 1.472e-05 rev/day^2 Epoch rev: 899 Checksum: 297
Satellite: ISS Catalog number: 25544 Epoch time: 12131.90893385 Element set: 529 Inclination: 051.6414 deg RA of node: 308.8048 deg Eccentricity: 0.0010434 Arg of perigee: 301.3428 deg Mean anomaly: 221.5500 deg Mean motion: 15.56003892 rev/day Decay rate: 9.821e-05 rev/day^2 Epoch rev: 77220 Checksum: 274
Satellite: CO-58 Catalog number: 28895 Epoch time: 12130.65169613 Element set: 170 Inclination: 097.9189 deg RA of node: 358.6096 deg Eccentricity: 0.0016455 Arg of perigee: 271.4792 deg Mean anomaly: 088.4594 deg Mean motion: 14.60594490 rev/day Decay rate: 4.59e-06 rev/day^2 Epoch rev: 34803 Checksum: 356
Satellite: FALCON Catalog number: 30776 Epoch time: 12130.50998734 Element set: 0354 Inclination: 035.4321 deg RA of node: 153.0359 deg Eccentricity: 0.0002098 Arg of perigee: 019.3615 deg Mean anomaly: 340.7182 deg Mean motion: 15.07273191 rev/day Decay rate: 2.710e-05 rev/day^2 Epoch rev: 28441 Checksum: 273
Satellite: MAST Catalog number: 31126 Epoch time: 12131.99653624 Element set: 453 Inclination: 097.8723 deg RA of node: 145.2735 deg Eccentricity: 0.0092922 Arg of perigee: 226.3118 deg Mean anomaly: 133.0355 deg Mean motion: 14.54129304 rev/day Decay rate: 2.84e-06 rev/day^2 Epoch rev: 26886 Checksum: 293
Satellite: CAPE1 Catalog number: 31130 Epoch time: 12130.96809648 Element set: 0465 Inclination: 097.8811 deg RA of node: 140.7099 deg Eccentricity: 0.0100517 Arg of perigee: 242.3674 deg Mean anomaly: 116.7270 deg Mean motion: 14.52900748 rev/day Decay rate: 6.81e-06 rev/day^2 Epoch rev: 26822 Checksum: 295
Satellite: COMPASS Catalog number: 32787 Epoch time: 12130.70180197 Element set: 298 Inclination: 097.8025 deg RA of node: 192.8854 deg Eccentricity: 0.0015057 Arg of perigee: 182.7960 deg Mean anomaly: 177.3140 deg Mean motion: 14.83849207 rev/day Decay rate: 1.353e-05 rev/day^2 Epoch rev: 21810 Checksum: 306
Satellite: AAUSAT2 Catalog number: 32788 Epoch time: 12130.14029375 Element set: 0288 Inclination: 097.8041 deg RA of node: 192.6977 deg Eccentricity: 0.0014772 Arg of perigee: 183.0809 deg Mean anomaly: 177.0336 deg Mean motion: 14.84159666 rev/day Decay rate: 2.256e-05 rev/day^2 Epoch rev: 21804 Checksum: 321
Satellite: DO-64 Catalog number: 32789 Epoch time: 12130.69723355 Element set: 0307 Inclination: 097.8141 deg RA of node: 195.1199 deg Eccentricity: 0.0014887 Arg of perigee: 179.5103 deg Mean anomaly: 180.6113 deg Mean motion: 14.85541679 rev/day Decay rate: 3.071e-05 rev/day^2 Epoch rev: 21816 Checksum: 323
Satellite: CO-66 Catalog number: 32791 Epoch time: 12130.81149273 Element set: 0290 Inclination: 097.8013 deg RA of node: 192.7653 deg Eccentricity: 0.0015933 Arg of perigee: 179.9575 deg Mean anomaly: 180.1626 deg Mean motion: 14.83295861 rev/day Decay rate: 1.651e-05 rev/day^2 Epoch rev: 21805 Checksum: 321
Satellite: RS-30 Catalog number: 32953 Epoch time: 12131.05802784 Element set: 764 Inclination: 082.5011 deg RA of node: 318.8557 deg Eccentricity: 0.0019433 Arg of perigee: 033.8136 deg Mean anomaly: 326.4183 deg Mean motion: 12.43023182 rev/day Decay rate: 1.0e-07 rev/day^2 Epoch rev: 17982 Checksum: 274
Satellite: TACSAT-3 Catalog number: 35001 Epoch time: 12121.72616188 Element set: 0001 Inclination: 040.4259 deg RA of node: 351.8840 deg Eccentricity: 0.0007146 Arg of perigee: 275.2650 deg Mean anomaly: 085.0693 deg Mean motion: 16.45157000 rev/day Decay rate: 1.5204951e-01 rev/day^2 Epoch rev: 16699 Checksum: 280
Satellite: PHARMSAT Catalog number: 35002 Epoch time: 12130.90911432 Element set: 0899 Inclination: 040.4631 deg RA of node: 311.1644 deg Eccentricity: 0.0006298 Arg of perigee: 307.5783 deg Mean anomaly: 052.4464 deg Mean motion: 15.76846217 rev/day Decay rate: 8.4461e-04 rev/day^2 Epoch rev: 16826 Checksum: 293
Satellite: METEOR-M Catalog number: 35865 Epoch time: 12131.21977172 Element set: 396 Inclination: 098.6580 deg RA of node: 186.2509 deg Eccentricity: 0.0002733 Arg of perigee: 143.9302 deg Mean anomaly: 216.2061 deg Mean motion: 14.21861424 rev/day Decay rate: 1.0e-08 rev/day^2 Epoch rev: 13720 Checksum: 270
Satellite: RS-38 Catalog number: 35869 Epoch time: 12131.31684998 Element set: 404 Inclination: 098.6536 deg RA of node: 186.3482 deg Eccentricity: 0.0004871 Arg of perigee: 152.3590 deg Mean anomaly: 207.7844 deg Mean motion: 14.22068238 rev/day Decay rate: 4.8e-07 rev/day^2 Epoch rev: 13723 Checksum: 327
Satellite: JUGNU Catalog number: 37839 Epoch time: 12130.65792387 Element set: 0146 Inclination: 019.9620 deg RA of node: 231.6486 deg Eccentricity: 0.0018485 Arg of perigee: 156.6258 deg Mean anomaly: 203.4975 deg Mean motion: 14.12050603 rev/day Decay rate: 6.20e-06 rev/day^2 Epoch rev: 02979 Checksum: 307
